Temperature
12 12 12 12 12 12 12 12 12 12 12 12 12 12 12 12 12 12 12 12 12 12 12 12 12 12 11 11 12 12 12 12 12 12 12 12 12 11 11 11 11 11 11
12 12 12 12 12 12 12 12 12 12 12 12 12 12 12 12 12 12 12 11 11 11 11 11 11 11 11 11 11 11 11 11 11 11 11 11 11 11 11 11 11 11 11
12 12 12 12 12 12 12 12 12 11 11 11 11 11 11 11 11 11 11 11 11 11 11 11 11 11 11 11 11 11 11 11 11 11 11 11 11 11 11 10 10 10 10
12 11 11 11 11 11 11 11 11 11 11 11 11 11 11 11 11 11 11 11 11 11 11 11 10 11 11 11 11 11 11 11 11 11 11 10 10 10 10 10 10 10 10
11 11 11 11 11 11 11 11 11 11 11 10 10 10 10 10 10 10 10 10 10 10 10 10 10 10 10 10 10 10 10 10 10 10 10 10 10 10 10 9 9 9 9
11 11 11 11 11 11 11 10 10 10 10 10 10 10 10 10 10 10 10 10 10 10 10 10 10 10 10 10 10 10 10 10 10 10 10 10 9 9 9 9 9 9 8
11 11 11 10 10 10 10 10 10 10 10 10 10 9 9 9 10 10 10 10 10 10 10 10 10 10 10 10 10 10 10 10 9 9 9 9 9 9 9 9 8 8 8
10 10 10 10 10 10 10 10 10 10 9 9 9 9 9 9 9 9 9 9 10 10 10 10 10 10 9 9 9 9 9 9 9 9 9 9 9 9 8 8 8 8 8
10 10 10 10 10 10 10 10 10 10 9 9 9 9 9 9 9 9 9 9 9 9 9 9 9 9 9 9 9 9 9 9 9 9 9 9 8 8 8 8 8 8 7
10 10 10 10 10 9 9 9 9 9 9 9 9 9 9 9 9 8 9 9 9 9 9 9 9 9 9 9 9 9 9 9 9 8 8 8 8 8 8 8 7 7 7
10 10 10 10 9 9 9 9 9 9 9 9 9 9 8 9 9 9 8 8 8 9 9 9 9 8 8 8 8 8 8 8 8 8 8 8 8 8 8 7 7 7 7
9 9 9 9 9 9 9 9 9 8 8 8 8 8 8 8 8 8 8 8 8 8 8 8 8 8 8 8 8 8 8 8 8 8 8 8 7 7 7 7 7 6 6
9 9 9 9 9 9 8 8 8 8 8 8 8 8 8 8 8 8 8 8 8 8 8 8 8 8 8 7 7 7 7 7 7 7 7 7 7 7 7 6 6 6 6
9 9 9 9 8 8 8 8 8 8 8 8 8 8 8 8 8 8 8 7 7 7 7 7 7 7 7 7 7 7 7 7 7 7 7 7 7 6 6 6 6 6 5
8 8 8 8 8 8 8 8 8 8 8 7 7 7 7 7 7 7 7 7 7 6 6 6 7 7 7 7 7 6 7 6 6 6 6 6 6 6 6 6 5 5 5
8 8 8 8 8 8 8 8 8 8 7 7 7 7 7 7 7 7 7 7 7 6 6 6 6 6 6 6 6 6 6 6 6 6 6 6 6 5 5 5 5 5 5
7 7 7 7 7 7 7 7 7 7 7 7 7 7 7 7 7 7 7 7 6 6 6 6 6 5 5 5 5 5 5 5 5 5 5 5 5 5 5 5 5 4 4
7 7 7 7 7 7 7 7 7 7 7 7 7 7 6 6 6 6 6 6 6 6 5 5 5 5 5 5 5 5 5 5 5 5 5 5 5 4 4 4 4 4 4
6 6 6 6 7 6 6 6 6 6 6 6 6 6 6 6 6 6 6 6 6 5 5 5 5 5 5 4 4 5 4 4 4 4 4 4 4 4 4 4 4 4 3
6 6 6 6 6 6 6 6 6 6 6 6 6 6 6 6 5 5 5 5 5 5 5 5 4 4 4 4 4 4 4 4 4 4 4 4 3 3 3 3 3 3 3
5 5 5 5 5 5 5 5 5 5 5 5 5 5 5 5 5 5 5 5 4 4 4 4 4 4 4 4 4 4 3 4 4 4 3 3 3 3 3 3 3 3 2
5 5 5 5 5 5 5 5 5 5 5 5 5 5 5 5 5 4 4 4 4 4 4 4 4 4 3 3 3 3 3 3 3 3 3 3 3 3 3 2 2 2 2
4 4 4 4 4 4 4 4 4 4 4 4 4 4 4 4 4 4 4 4 4 3 3 3 3 3 3 3 3 3 3 2 2 2 2 2 2 2 2 2 2 2 1
3 3 4 4 4 4 4 4 4 4 4 4 4 4 4 4 4 4 4 3 3 3 3 3 3 3 3 2 2 2 2 2 2 1 1 1 2 2 2 2 2 1 1
3 3 3 3 3 3 3 3 3 3 3 3 3 3 3 3 3 3 3 3 3 3 3 2 2 2 2 2 1 1 1 1 1 1 1 0 1 1 1 1 1 1 0
2 2 2 2 2 2 2 2 2 3 3 3 3 3 3 3 3 3 3 3 3 2 2 2 2 2 1 1 1 1 0 0 0 -0 -0 -0 -0 -0 -0 1 1 0 0
Wind_Speed
6 6 6 7 7 8 8 8 8 8 8 8 8 8 7 7 8 8 7 8 8 8 8 8 8 9 8 8 8 8 7 7 7 7 7 7 7 7 7 7 8 8 8
7 6 6 6 6 7 8 8 8 7 6 7 6 7 7 7 7 7 7 7 7 7 6 6 7 7 7 7 7 7 7 6 6 5 5 5 5 5 5 6 6 7 7
9 7 6 5 6 8 9 8 8 7 6 5 5 5 6 6 6 7 7 6 6 6 5 5 5 6 6 6 6 6 6 5 5 5 4 4 4 4 4 4 5 5 6
10 8 6 5 7 8 8 6 5 4 4 4 3 3 4 5 5 6 6 6 6 5 5 5 4 4 4 5 4 5 4 4 5 4 4 4 4 4 4 4 4 5 5
11 9 6 6 8 7 6 5 4 4 4 4 3 3 3 3 4 5 5 6 5 5 5 5 5 4 4 3 3 3 3 3 3 3 3 3 3 3 3 2 2 3 3
10 9 7 7 8 6 5 5 5 4 4 4 4 4 3 3 3 4 3 4 5 5 4 4 4 4 4 3 2 2 3 3 3 3 3 3 2 2 2 2 2 2 3
10 9 6 7 7 6 6 6 5 5 3 3 3 3 3 3 3 2 2 3 3 4 4 4 4 4 3 3 2 2 2 3 3 3 3 3 2 2 3 3 3 3 3
10 9 8 6 6 6 6 6 6 4 2 3 3 3 1 1 2 2 1 1 2 3 3 3 4 4 3 3 3 3 2 2 2 2 2 2 2 3 3 3 3 3 3
9 9 9 7 7 7 7 7 7 6 5 2 2 3 3 3 1 1 1 1 1 1 1 2 3 3 3 2 2 2 2 1 1 1 2 2 3 3 3 3 3 3 3
8 9 9 8 8 6 7 7 6 4 6 5 2 1 2 3 2 1 1 0 1 1 1 1 2 1 1 1 1 1 1 0 1 2 2 2 2 3 3 3 3 3 3
7 8 8 8 8 7 7 7 6 5 5 5 4 3 2 2 2 2 2 1 1 1 1 1 2 1 0 1 0 0 0 0 1 1 2 2 2 3 3 4 4 4 4
4 6 7 7 7 7 7 8 8 7 6 5 4 4 4 3 3 3 2 2 1 1 0 1 2 2 1 1 0 0 0 1 1 1 2 2 3 3 3 3 3 4 4
3 5 6 6 6 7 7 7 7 7 7 7 6 4 4 3 3 3 3 2 1 1 1 1 2 3 2 1 1 0 0 0 1 2 2 2 3 3 4 4 4 4 5
5 5 6 7 7 7 7 7 5 6 6 6 6 5 4 3 3 4 4 3 1 1 1 2 1 2 2 2 1 0 1 1 2 2 3 3 3 3 4 4 4 5 5
4 5 6 5 6 7 7 7 5 6 6 6 6 6 4 3 3 3 3 4 4 3 4 3 2 1 2 1 1 0 0 1 2 2 3 2 3 3 4 4 4 5 5
4 5 5 5 5 5 6 6 5 5 6 5 4 5 4 3 3 3 3 3 3 4 3 2 2 1 1 1 1 1 1 2 2 3 3 3 3 3 4 4 4 4 5
5 6 6 6 6 5 5 5 5 5 6 5 4 5 5 4 3 3 3 3 3 3 3 2 1 1 1 1 1 1 2 3 3 4 4 4 4 4 5 4 5 5 5
4 5 5 6 6 6 6 6 6 6 6 6 5 5 4 4 4 3 3 3 3 3 3 3 2 1 2 2 1 1 2 3 4 5 5 5 5 5 5 5 5 6 6
4 4 5 5 6 6 6 6 6 6 6 6 6 6 5 5 4 4 4 4 3 2 2 3 2 1 1 1 1 1 1 2 4 4 5 5 6 6 6 6 6 6 7
4 4 5 5 5 5 6 6 6 6 5 5 5 5 5 6 6 5 5 5 4 3 3 3 2 2 1 1 1 1 2 1 2 3 4 5 6 6 7 7 7 8 8
3 4 4 4 4 4 5 6 6 6 6 4 4 4 4 5 6 5 5 5 5 4 3 3 3 2 2 2 2 2 2 2 2 2 2 4 5 5 7 8 8 8 8
3 4 4 4 4 4 5 7 6 5 5 5 4 3 3 4 5 5 5 6 6 6 5 4 3 3 3 3 2 2 2 1 3 1 1 4 3 3 6 7 8 8 8
3 3 4 4 4 4 5 6 6 5 5 5 5 4 3 3 3 3 3 4 4 5 6 6 5 5 4 4 4 3 3 3 4 2 1 4 3 4 6 8 8 8 8
3 3 3 3 3 3 4 5 5 4 4 4 4 5 4 4 4 4 3 3 2 3 4 4 5 5 4 5 5 4 4 2 2 2 2 3 3 3 5 7 8 7 7
2 2 2 3 3 2 4 5 4 3 3 2 3 3 4 4 5 6 4 3 2 1 2 4 4 3 3 4 4 2 1 1 3 2 2 2 2 3 4 4 6 7 8
2 2 2 2 2 2 3 4 4 3 3 2 2 2 4 5 5 5 4 4 3 2 2 1 1 1 1 2 4 4 3 3 2 3 2 1 2 2 3 3 4 6 7
Wind_Direction
130 125 122 119 117 117 115 109 108 108 104 102 103 106 104 101 99 95 97 99 102 105 104 108 108 106 104 100 97 96 96 94 90 87 85 88 85 80 76 79 72 66 61
139 134 125 122 124 125 123 120 117 114 108 107 99 100 100 100 100 99 96 93 94 100 105 107 110 110 107 103 99 98 93 91 90 88 82 84 85 80 77 78 72 63 57
147 140 133 132 134 131 123 116 110 107 105 101 91 90 95 97 100 100 96 88 86 89 100 105 105 108 106 106 104 99 94 88 84 81 76 83 86 82 80 78 72 64 58
154 144 140 143 143 134 128 124 122 113 107 103 94 80 85 93 95 100 99 94 91 87 87 94 100 101 100 98 101 98 92 86 87 79 74 77 72 68 72 73 67 59 53
158 150 145 145 146 134 130 136 129 123 123 113 103 82 71 79 87 95 95 96 96 94 88 86 93 93 92 92 95 90 86 79 73 70 71 65 56 46 44 48 52 46 35
159 151 144 146 147 141 140 136 133 114 124 124 107 81 59 59 73 79 89 97 99 100 96 94 94 91 83 79 78 71 71 64 61 60 57 45 34 21 12 3 3 6 6
161 153 149 150 151 157 157 146 135 127 114 118 102 80 45 48 59 53 68 85 88 102 103 105 106 97 81 65 53 61 79 68 69 64 52 33 8 351 347 350 348 353 2
163 161 156 159 158 157 154 153 144 140 139 143 130 118 86 359 11 27 43 85 91 92 92 109 110 102 91 74 58 69 83 70 60 47 26 10 356 342 339 351 2 10 359
167 166 165 162 164 167 171 170 163 155 162 170 137 138 149 202 260 332 360 88 101 99 103 111 111 100 93 85 78 69 77 58 14 351 344 339 339 335 341 339 343 354 350
173 171 168 167 169 171 174 179 175 168 163 171 165 120 139 148 155 213 313 310 110 136 136 130 117 97 80 72 58 69 99 81 318 323 326 331 324 328 334 332 331 337 339
177 174 172 171 174 176 178 179 176 175 175 175 169 154 127 98 120 151 223 267 301 237 182 175 154 145 96 33 28 351 170 184 319 349 10 10 8 360 348 340 339 337 333
183 178 177 178 180 180 182 185 184 183 187 181 175 168 163 162 170 160 182 214 238 274 254 195 192 192 189 220 270 287 207 219 285 330 354 5 7 1 348 339 342 344 341
190 193 185 184 184 185 183 180 183 188 186 183 185 186 184 183 160 155 152 169 207 287 301 264 226 217 202 194 212 333 296 303 303 305 322 340 351 356 348 343 335 330 328
192 189 189 188 186 183 181 179 182 188 183 187 189 185 185 188 172 168 164 156 171 269 270 255 285 226 213 212 220 202 329 295 294 300 306 321 335 339 341 336 333 326 323
181 179 186 185 184 180 178 176 182 185 182 189 191 190 190 191 180 183 170 168 172 216 245 230 225 234 230 223 225 195 272 300 300 302 308 316 324 329 335 337 333 329 325
174 173 179 180 180 179 178 174 177 178 179 185 183 185 193 189 182 180 184 190 188 193 230 222 213 205 208 213 261 286 287 285 291 288 295 301 311 316 319 322 323 324 322
176 179 182 181 182 180 175 173 177 172 177 179 180 185 195 185 186 185 180 182 186 179 211 247 206 177 172 190 286 292 290 284 284 281 281 281 291 297 301 308 310 310 311
183 181 178 179 182 182 179 177 177 176 180 182 182 180 195 189 190 187 183 192 195 187 190 219 225 201 219 212 220 250 278 272 276 276 274 276 280 287 292 296 300 303 304
176 173 170 178 183 183 180 179 177 179 184 189 186 187 194 185 195 196 190 194 193 184 179 192 219 219 242 216 228 262 273 282 289 275 274 279 280 285 290 292 296 298 300
173 173 175 180 183 183 178 176 173 175 182 189 188 190 193 193 198 196 195 193 178 173 169 177 199 219 237 225 206 242 282 289 290 290 287 289 289 288 288 291 292 293 293
175 176 170 174 176 178 178 173 173 176 180 182 185 192 198 200 202 200 197 190 180 183 180 188 203 210 223 216 229 229 262 292 290 282 294 294 293 290 292 292 289 288 289
172 165 171 173 174 182 175 172 171 175 176 178 186 190 196 194 197 197 194 191 190 192 197 201 215 215 225 223 220 218 241 286 287 265 279 285 273 266 279 286 288 288 286
166 165 171 165 169 171 162 169 173 172 173 184 188 186 189 187 181 185 188 186 199 205 202 200 207 221 221 212 204 218 224 231 250 251 255 273 264 264 275 281 283 283 286
160 170 168 164 162 163 155 158 160 163 168 182 187 186 184 186 188 181 174 177 192 214 210 206 208 217 215 200 200 215 229 245 268 255 213 259 275 277 285 283 278 277 286
140 154 154 152 158 159 153 157 151 149 156 173 184 181 181 188 188 175 167 175 185 230 214 203 207 208 206 207 193 170 201 243 278 265 209 236 273 294 287 274 278 281 290
138 133 116 135 161 164 156 159 152 154 159 170 173 183 184 184 183 178 175 177 194 214 176 147 160 159 171 190 197 195 204 224 254 257 216 219 262 306 300 276 279 290 292
Height
1538 1540 1542 1545 1547 1549 1551 1553 1555 1557 1559 1561 1562 1564 1566 1567 1568 1570 1571 1572 1573 1573 1574 1575 1575 1576 1576 1576 1576 1576 1576 1577 1576 1577 1577 1576 1576 1576 1576 1576 1575 1575 1574
1537 1539 1541 1544 1546 1548 1550 1552 1554 1556 1558 1560 1562 1563 1565 1566 1568 1569 1570 1571 1572 1573 1574 1574 1575 1575 1576 1576 1576 1576 1576 1576 1576 1576 1576 1576 1576 1576 1576 1575 1575 1574 1574
1536 1538 1540 1543 1545 1547 1549 1551 1553 1555 1557 1559 1561 1563 1564 1566 1567 1568 1569 1570 1571 1572 1573 1574 1574 1575 1575 1575 1576 1576 1576 1576 1576 1576 1575 1575 1575 1575 1575 1574 1574 1574 1573
1534 1537 1539 1541 1544 1546 1548 1550 1552 1554 1556 1558 1560 1562 1563 1565 1566 1567 1568 1569 1570 1571 1572 1573 1573 1574 1574 1575 1575 1575 1575 1575 1575 1575 1575 1574 1574 1574 1574 1573 1573 1572 1572
1533 1535 1537 1540 1542 1544 1546 1548 1550 1552 1554 1556 1559 1561 1562 1564 1565 1566 1567 1568 1569 1570 1571 1572 1572 1573 1573 1574 1574 1574 1574 1574 1574 1574 1574 1573 1573 1572 1572 1572 1571 1571 1571
1530 1533 1535 1537 1540 1542 1544 1546 1549 1551 1553 1555 1557 1559 1561 1563 1564 1565 1566 1567 1568 1568 1569 1570 1571 1571 1572 1572 1572 1572 1572 1572 1572 1572 1572 1572 1571 1571 1570 1570 1570 1569 1569
1528 1531 1533 1535 1537 1540 1542 1544 1547 1549 1551 1554 1556 1558 1560 1561 1562 1563 1564 1565 1566 1567 1568 1568 1569 1570 1570 1570 1571 1570 1571 1571 1571 1570 1570 1570 1569 1569 1569 1568 1568 1567 1567
1525 1528 1530 1532 1535 1537 1540 1542 1544 1546 1549 1551 1553 1555 1557 1560 1560 1561 1562 1563 1564 1565 1565 1566 1567 1568 1568 1568 1568 1569 1569 1569 1569 1569 1568 1568 1567 1567 1566 1566 1566 1565 1565
1522 1525 1527 1530 1532 1534 1537 1539 1541 1544 1546 1549 1551 1553 1555 1555 1557 1558 1559 1560 1561 1562 1563 1564 1564 1565 1566 1566 1566 1567 1567 1567 1567 1566 1566 1566 1565 1565 1564 1564 1563 1563 1562
1519 1521 1524 1526 1529 1531 1534 1536 1539 1541 1543 1545 1548 1550 1552 1553 1555 1555 1557 1558 1559 1560 1561 1561 1562 1563 1563 1564 1564 1564 1564 1565 1565 1564 1563 1563 1563 1562 1562 1561 1561 1560 1559
1515 1518 1520 1523 1525 1528 1530 1533 1535 1538 1540 1542 1544 1546 1549 1550 1552 1552 1553 1554 1555 1557 1558 1559 1559 1560 1560 1561 1561 1561 1562 1562 1562 1561 1561 1560 1560 1560 1559 1558 1558 1557 1556
1512 1514 1517 1519 1521 1524 1526 1529 1532 1534 1537 1539 1541 1543 1545 1547 1548 1549 1550 1550 1552 1553 1554 1555 1556 1557 1557 1558 1558 1558 1559 1559 1559 1559 1558 1558 1557 1557 1556 1556 1555 1554 1553
1507 1510 1513 1515 1518 1520 1523 1525 1528 1530 1533 1535 1538 1540 1542 1544 1546 1547 1548 1548 1549 1550 1551 1552 1553 1554 1554 1555 1555 1555 1556 1556 1556 1555 1555 1555 1554 1554 1553 1553 1552 1551 1550
1503 1506 1509 1511 1514 1516 1518 1521 1524 1526 1529 1531 1534 1536 1538 1540 1542 1543 1545 1545 1546 1547 1548 1549 1550 1551 1551 1552 1552 1552 1552 1552 1552 1552 1552 1552 1551 1551 1550 1549 1548 1548 1547
1500 1502 1505 1507 1509 1512 1514 1516 1519 1522 1524 1527 1529 1532 1534 1536 1538 1539 1541 1542 1543 1543 1543 1545 1546 1547 1548 1548 1548 1548 1548 1549 1549 1548 1548 1548 1548 1547 1546 1545 1545 1544 1543
1496 1498 1501 1503 1505 1508 1510 1512 1515 1517 1520 1522 1525 1527 1530 1532 1534 1535 1537 1538 1539 1539 1539 1540 1541 1543 1544 1544 1545 1545 1545 1545 1545 1544 1544 1544 1543 1543 1542 1541 1541 1540 1539
1491 1494 1497 1499 1501 1503 1506 1508 1510 1513 1515 1518 1521 1523 1525 1527 1529 1531 1532 1533 1534 1536 1535 1536 1538 1539 1539 1540 1540 1541 1541 1541 1541 1540 1540 1540 1539 1538 1538 1537 1536 1535 1534
1488 1491 1493 1495 1497 1500 1502 1504 1507 1509 1511 1513 1516 1518 1520 1523 1524 1526 1527 1529 1530 1531 1532 1531 1533 1534 1535 1536 1536 1537 1537 1537 1537 1536 1536 1535 1535 1534 1533 1532 1532 1531 1529
1484 1486 1489 1491 1493 1496 1498 1501 1503 1505 1507 1510 1512 1514 1516 1518 1520 1522 1523 1524 1526 1527 1528 1528 1528 1530 1531 1532 1532 1532 1533 1532 1532 1532 1531 1530 1530 1529 1529 1528 1527 1526 1525
1481 1483 1485 1487 1490 1492 1494 1496 1499 1501 1504 1506 1509 1511 1513 1514 1516 1518 1519 1520 1522 1523 1524 1524 1524 1525 1526 1527 1528 1527 1528 1528 1528 1527 1527 1526 1525 1525 1524 1523 1522 1521 1520
1477 1479 1482 1484 1487 1488 1490 1492 1495 1498 1500 1502 1505 1507 1509 1511 1512 1514 1515 1516 1517 1519 1520 1520 1520 1521 1522 1522 1523 1523 1523 1523 1523 1522 1522 1522 1521 1520 1519 1518 1517 1516 1515
1474 1476 1478 1481 1482 1484 1487 1490 1492 1494 1496 1499 1501 1503 1505 1506 1508 1509 1511 1512 1514 1515 1515 1516 1516 1517 1517 1518 1519 1519 1518 1518 1517 1518 1517 1517 1516 1515 1514 1514 1513 1511 1510
1471 1473 1475 1477 1479 1482 1484 1486 1488 1491 1493 1495 1497 1499 1501 1503 1504 1505 1507 1508 1509 1510 1512 1512 1512 1512 1513 1514 1514 1514 1514 1513 1513 1513 1512 1510 1511 1510 1510 1509 1508 1507 1505
1468 1470 1472 1474 1476 1479 1481 1483 1485 1487 1489 1492 1494 1495 1497 1499 1500 1502 1502 1503 1504 1506 1507 1508 1508 1508 1509 1509 1510 1510 1509 1509 1508 1508 1507 1506 1505 1504 1504 1503 1503 1502 1500
1466 1468 1469 1471 1473 1475 1478 1480 1482 1484 1486 1488 1490 1492 1493 1495 1496 1497 1498 1499 1500 1501 1502 1503 1504 1504 1504 1504 1505 1505 1504 1504 1502 1502 1503 1501 1499 1498 1498 1498 1497 1496 1495
1464 1466 1467 1469 1471 1473 1475 1477 1479 1481 1482 1484 1486 1488 1490 1491 1492 1493 1494 1495 1495 1496 1497 1498 1498 1499 1499 1499 1500 1500 1500 1499 1498 1497 1497 1497 1495 1494 1491 1491 1492 1491 1489